[ hide orbit diagram ]
For accurate long-term ephemerides, please instead use our Horizons system.This orbit viewer was implemented using two-body methods, and hence should not be used for determining accurate long-term trajectories (over several years or decades) or planetary encounter circumstances.
Orbital Elements at Epoch 2459000.5 (2020-May-31.0) TDB
Reference: JPL 16 (heliocentric ecliptic J2000)
Element | Value | Uncertainty (1-sigma) | Units |
e | .1005953350145206 | 4.0942e-08 | |
a | 2.985741723558482 | 2.0406e-08 | au |
q | 2.685390034610285 | 1.3166e-07 | au |
i | 1.344802191522611 | 4.0561e-06 | deg |
node | 239.0615937264565 | 0.0002808 | deg |
peri | 200.8906004401915 | 0.0002838 | deg |
M | 254.5347172904516 | 4.2853e-05 | deg |
tp | 2459552.556849875772 (2021-Dec-04.05684988) | 0.00022698 | TDB |
period | 1884.415997846508 5.16 | 1.9319e-05 5.289e-08 | d yr |
n | .1910406196993681 | 1.9585e-09 | deg/d |
Q | 3.28609341250668 | 2.2459e-08 | au |
|
| | Orbit Determination Parameters
Additional Information
|
[ show covariance matrix ]
Physical Parameter Table
Parameter |
Symbol |
Value |
Units |
Sigma |
Reference |
Notes |
absolute magnitude |
H |
15.5 |
|
n/a |
MPO264168 |
|
|
123314 (2000 VC8) Discovered 2000-Nov-01 by LINEAR at Socorro |
Reference: 20060314/Numbers.arc | Last Updated: 2006-03-23 |
|
[ hide close-approach data ]
Close-Approach Data ...sorted by Date/Time (TDB)
|
Date/Time (TDB) |
Time Uncertainty (days_HH:MM) |
Body |
Nominal Distance (au) |
Minimum Distance (au) |
Maximum Distance (au) |
V-relative (km/s) |
V-infinity (km/s) |
JD (TDB) |
Time Uncertainty (minutes) |
Semi-major axis (km) |
Semi-minor axis (km) |
range-LOV angle (deg) |
N-sigma |
BP |
Orbit Ref. |
Reference |
Modified |
1937-Mar-28 23:39 |
00:03 |
Jupiter |
1.94520128439615 |
1.94520079660609 |
1.94520177218609 |
2.75769928671111 |
2.59499926257789 |
2428621.485333807 |
2.50752861165416 |
55.7936351977728 |
14.7525988009746 |
-84.9174539834615 |
2624858.1069529 |
T |
16 |
CATAB v2.0f-lin.ifort 2020-Dec-17 22:48:38 |
2020-Dec-17 22:48 |
1973-Oct-24 00:51 |
00:01 |
Jupiter |
1.94255097708493 |
1.94255024401451 |
1.94255171015536 |
3.01131493401736 |
2.86285613737131 |
2441979.535174306 |
1.37113334510418 |
61.1659758080718 |
20.6594352588153 |
82.2951186901975 |
1963163.3777338 |
T |
16 |
CATAB v2.0f-lin.ifort 2020-Dec-17 22:48:38 |
2020-Dec-17 22:48 |
2055-Nov-06 04:07 |
00:01 |
Jupiter |
1.94469634792502 |
1.94469588857678 |
1.94469680727314 |
2.74382854471275 |
2.58021021940415 |
2471942.671719690 |
1.23016453017723 |
54.5661932515005 |
13.4072877455575 |
-85.8562993218775 |
2750797.2545769 |
T |
16 |
CATAB v2.0f-lin.ifort 2020-Dec-17 22:48:38 |
2020-Dec-17 22:48 |
2092-Jun-02 14:04 |
00:02 |
Jupiter |
1.93183458374162 |
1.93183395840458 |
1.93183520907844 |
2.94894251628764 |
2.79631042296096 |
2485301.086426924 |
2.36294449629201 |
80.9305883570101 |
18.562677113424 |
-85.9346374507206 |
2056996.15209426 |
T |
16 |
CATAB v2.0f-lin.ifort 2020-Dec-17 22:48:38 |
2020-Dec-17 22:48 |
2174-Jun-17 06:38 |
00:05 |
Jupiter |
1.94320997839336 |
1.94320924787746 |
1.94321070890915 |
2.73072104218529 |
2.566137328323 |
2515264.776444518 |
4.90674231852427 |
53.8390869899711 |
30.8898471468077 |
-82.4092522740842 |
2737455.02651315 |
T |
16 |
CATAB v2.0f-lin.ifort 2020-Dec-17 22:48:38 |
2020-Dec-17 22:48 |
|
|